Hourly Data Report for December 01, 2019

All times are specified in Local Standard Time (LST). Add 1 hour to adjust for Daylight Saving Time where and when it is observed.

OTTAWA INTL A
ONTARIO
Current Station Operator: NAVCAN

45°19'00.000" N
75°40'00.000" W
114.90 m
6106001
71628
YOW

Download Data

Hourly Data (December 2019)
Hourly Data Report for December 1, 2019
TIME Temp Definition
°C
Dew Point Definition
°C
Rel Hum Definition
%
Wind Dir Definition
10's deg

Wind Spd Definition
km/h
Visibility Definition
km
Stn Press Definition
kPa
Hmdx Definition


Wind Chill Definition


Weather Definition


00:00 -10.5 -13.2 81 2 12 24.1 100.62   -17 LegendNANA
01:00 -11.6 -13.9 83 4 10 24.1 100.59   -17 Clear
02:00 -12.3 -14.2 86 4 10 24.1 100.51   -18 LegendNANA
03:00 -12.1 -14.2 84 4 10 24.1 100.52   -18 LegendNANA
04:00 -13.1 -14.9 86 4 15 24.1 100.52   -21 Clear
05:00 -12.6 -14.5 85 4 16 24.1 100.40   -20 LegendNANA
06:00 -12.7 -14.8 84 5 12 24.1 100.34   -19 LegendNANA
07:00 -12.8 -15.0 84 7 8 24.1 100.26   -18 Clear
08:00 -12.3 -14.5 83 5 10 24.1 100.33   -18 LegendNANA
09:00 -11.0 -13.7 81 6 16 24.1 100.31   -18 LegendNANA
10:00 -10.0 -12.5 82 6 24 24.1 100.20   -19 Mostly Cloudy
11:00 -9.0 -12.4 77 5 30 24.1 100.03   -18 LegendNANA
12:00 -8.3 -13.4 67 7 28 24.1 99.92   -17 LegendNANA
13:00 -7.4 -13.8 60 7 22 24.1 99.88   -15 Mostly Cloudy
14:00 -7.3 -13.9 60 6 23 24.1 99.72   -15 LegendNANA
15:00 -7.5 -13.8 61 7 28 24.1 99.73   -16 LegendNANA
16:00 -7.6 -13.9 61 6 26 24.1 99.76   -16 Cloudy
17:00 -7.7 -13.6 63 8 16 24.1 99.80   -14 LegendNANA
18:00 -7.7 -12.9 67 7 20 24.1 99.76   -15 LegendNANA
19:00 -7.5 -12.4 68 6 26 24.1 99.68   -16 Cloudy
20:00 -7.4 -11.6 72 6 27 6.4 99.62   -16 Snow
21:00 -6.6 -11.3 70 7 20 11.3 99.62   -14 Snow
22:00 -6.6 -10.6 74 6 23 12.9 99.57   -14 Snow
23:00 -5.5 -10.9 66 6 26 12.9 99.57   -13 LegendNANA

Notes on Data Quality.

Legend

  • E = Estimated
  • M = Missing
  • NA = Not Available
Date modified: